When you browse on this site, cookies collect data to enhance your experience and personalize the content and advertising you see.
Visit our Privacy Policy to learn more. By continuing to use the site, you agree to this use of cookies and data.
  • en France
  • Liste des pays
  • À 7 jours
  • Température de l'eau
  • Carte météo
  • Widgets météo
  • user-avatar
    Se connecter

    Météo par heure à Cacalomacán

    Ce jour, 19 Septembre, Jeudi

    Heure Température Précipitation Vent Pression Humidité
    00:00 +12°C° 3.1 mm 1 m/s 547 mmHg 98%
    01:00 +12°C° 3.1 mm 1 m/s 546 mmHg 98%
    02:00 +12°C° 3.1 mm 1 m/s 546 mmHg 98%
    03:00 +11°C° 0.5 mm 1 m/s 546 mmHg 97%
    04:00 +11°C° 0.5 mm 1 m/s 545 mmHg 96%
    05:00 +10°C° 0.5 mm 0 m/s 545 mmHg 96%
    06:00 +11°C° 0 mm 0 m/s 546 mmHg 93%
    07:00 +13°C° 0 mm 1 m/s 546 mmHg 90%
    08:00 +14°C° 0 mm 1 m/s 547 mmHg 87%
    09:00 +15°C° 0.6 mm 1 m/s 548 mmHg 83%
    10:00 +18°C° 0.6 mm 1 m/s 548 mmHg 79%
    11:00 +19°C° 0.6 mm 1 m/s 548 mmHg 76%
    12:00 +19°C° 1.5 mm 1 m/s 548 mmHg 78%
    13:00 +19°C° 1.5 mm 1 m/s 547 mmHg 80%
    14:00 +19°C° 1.5 mm 1 m/s 546 mmHg 81%
    15:00 +18°C° 1 mm 1 m/s 546 mmHg 85%
    16:00 +16°C° 1 mm 1 m/s 545 mmHg 88%
    17:00 +15°C° 1 mm 1 m/s 545 mmHg 92%
    18:00 +14°C° 1.2 mm 1 m/s 545 mmHg 93%
    19:00 +13°C° 1.2 mm 1 m/s 545 mmHg 94%
    20:00 +12°C° 1.2 mm 1 m/s 545 mmHg 96%
    21:00 +12°C° 0.4 mm 1 m/s 545 mmHg 95%
    22:00 +11°C° 0.4 mm 1 m/s 544 mmHg 94%
    23:00 +10°C° 0.4 mm 0 m/s 544 mmHg 93%

    Demain, 20 Septembre, Vendredi

    Heure Température Précipitation Vent Pression Humidité
    00:00 +9°C° 0 mm 0 m/s 544 mmHg 93%
    01:00 +9°C° 0 mm 0 m/s 544 mmHg 92%
    02:00 +10°C° 0 mm 1 m/s 543 mmHg 91%
    03:00 +10°C° 0 mm 1 m/s 543 mmHg 91%
    04:00 +9°C° 0 mm 1 m/s 543 mmHg 91%
    05:00 +9°C° 0 mm 1 m/s 543 mmHg 91%
    06:00 +11°C° 0 mm 1 m/s 545 mmHg 86%
    07:00 +14°C° 0 mm 1 m/s 546 mmHg 80%
    08:00 +16°C° 0 mm 1 m/s 547 mmHg 75%
    09:00 +19°C° 0 mm 1 m/s 548 mmHg 66%
    10:00 +20°C° 0 mm 1 m/s 549 mmHg 57%
    11:00 +21°C° 0 mm 2 m/s 549 mmHg 49%
    12:00 +21°C° 0.2 mm 2 m/s 549 mmHg 52%
    13:00 +20°C° 0.2 mm 2 m/s 548 mmHg 56%
    14:00 +19°C° 0.2 mm 2 m/s 547 mmHg 60%
    15:00 +18°C° 0.5 mm 2 m/s 546 mmHg 68%
    16:00 +16°C° 0.5 mm 1 m/s 545 mmHg 75%
    17:00 +15°C° 0.5 mm 1 m/s 545 mmHg 83%
    18:00 +14°C° 0.2 mm 1 m/s 545 mmHg 80%
    19:00 +13°C° 0.2 mm 1 m/s 545 mmHg 78%
    20:00 +12°C° 0.2 mm 1 m/s 545 mmHg 75%
    21:00 +12°C° 0 mm 1 m/s 545 mmHg 77%
    22:00 +11°C° 0 mm 1 m/s 545 mmHg 79%
    23:00 +10°C° 0 mm 1 m/s 545 mmHg 82%

    Après-demain, 21 Septembre, Samedi

    Heure Température Précipitation Vent Pression Humidité
    00:00 +10°C° 0 mm 1 m/s 544 mmHg 83%
    01:00 +10°C° 0 mm 1 m/s 544 mmHg 84%
    02:00 +9°C° 0 mm 1 m/s 544 mmHg 86%
    03:00 +9°C° 0 mm 1 m/s 543 mmHg 86%
    04:00 +9°C° 0 mm 1 m/s 543 mmHg 86%
    05:00 +8°C° 0 mm 1 m/s 543 mmHg 87%
    06:00 +11°C° 0 mm 1 m/s 545 mmHg 80%
    07:00 +12°C° 0 mm 0 m/s 547 mmHg 74%
    08:00 +15°C° 0 mm 0 m/s 548 mmHg 68%
    09:00 +19°C° 0 mm 1 m/s 549 mmHg 61%
    10:00 +21°C° 0 mm 1 m/s 550 mmHg 54%
    11:00 +22°C° 0 mm 1 m/s 550 mmHg 47%
    12:00 +22°C° 0.1 mm 1 m/s 549 mmHg 50%
    13:00 +20°C° 0.1 mm 2 m/s 548 mmHg 52%
    14:00 +20°C° 0.1 mm 2 m/s 548 mmHg 54%
    15:00 +18°C° 0.2 mm 2 m/s 547 mmHg 64%
    16:00 +18°C° 0.2 mm 1 m/s 546 mmHg 74%
    17:00 +15°C° 0.2 mm 1 m/s 545 mmHg 85%
    18:00 +14°C° 0.2 mm 1 m/s 545 mmHg 87%
    19:00 +13°C° 0.2 mm 1 m/s 545 mmHg 89%
    20:00 +11°C° 0.2 mm 0 m/s 545 mmHg 92%
    21:00 +11°C° 0.1 mm 0 m/s 545 mmHg 92%
    22:00 +11°C° 0.1 mm 0 m/s 546 mmHg 92%
    23:00 +11°C° 0.1 mm 0 m/s 546 mmHg 92%

    22 Septembre, Dimanche

    Heure Température Précipitation Vent Pression Humidité
    00:00 +11°C° 0 mm 0 m/s 545 mmHg 92%
    01:00 +10°C° 0 mm 0 m/s 545 mmHg 91%
    02:00 +10°C° 0 mm 0 m/s 545 mmHg 91%
    03:00 +10°C° 0 mm 0 m/s 545 mmHg 91%
    04:00 +9°C° 0 mm 0 m/s 544 mmHg 91%
    05:00 +9°C° 0 mm 0 m/s 544 mmHg 91%
    06:00 +11°C° 0 mm 0 m/s 546 mmHg 85%
    07:00 +13°C° 0 mm 0 m/s 547 mmHg 80%
    08:00 +15°C° 0 mm 0 m/s 549 mmHg 74%
    09:00 +19°C° 0 mm 1 m/s 549 mmHg 67%
    10:00 +20°C° 0 mm 1 m/s 550 mmHg 59%
    11:00 +22°C° 0 mm 1 m/s 550 mmHg 51%
    12:00 +20°C° 0.3 mm 2 m/s 549 mmHg 54%
    13:00 +20°C° 0.3 mm 2 m/s 548 mmHg 57%
    14:00 +20°C° 0.3 mm 2 m/s 547 mmHg 60%
    15:00 +18°C° 0.5 mm 2 m/s 547 mmHg 69%
    16:00 +18°C° 0.5 mm 1 m/s 546 mmHg 77%
    17:00 +16°C° 0.5 mm 1 m/s 545 mmHg 86%
    18:00 +14°C° 0.6 mm 1 m/s 545 mmHg 88%
    19:00 +12°C° 0.6 mm 0 m/s 545 mmHg 90%
    20:00 +11°C° 0.6 mm 0 m/s 545 mmHg 92%
    21:00 +10°C° 0.1 mm 0 m/s 545 mmHg 92%
    22:00 +10°C° 0.1 mm 0 m/s 545 mmHg 93%
    23:00 +10°C° 0.1 mm 0 m/s 545 mmHg 94%

    23 Septembre, Lundi

    Heure Température Précipitation Vent Pression Humidité
    00:00 +10°C° 0.1 mm 0 m/s 545 mmHg 94%
    01:00 +10°C° 0.1 mm 0 m/s 545 mmHg 94%
    02:00 +10°C° 0.1 mm 0 m/s 545 mmHg 94%
    03:00 +9°C° 0 mm 0 m/s 545 mmHg 94%
    04:00 +9°C° 0 mm 0 m/s 544 mmHg 94%
    05:00 +9°C° 0 mm 0 m/s 544 mmHg 94%
    06:00 +11°C° 0 mm 0 m/s 546 mmHg 89%
    07:00 +13°C° 0 mm 0 m/s 547 mmHg 84%
    08:00 +15°C° 0 mm 0 m/s 549 mmHg 80%
    09:00 +18°C° 0.1 mm 1 m/s 549 mmHg 71%
    10:00 +20°C° 0.1 mm 1 m/s 550 mmHg 63%
    11:00 +22°C° 0.1 mm 1 m/s 550 mmHg 54%
    12:00 +21°C° 0.4 mm 1 m/s 549 mmHg 56%
    13:00 +21°C° 0.4 mm 1 m/s 548 mmHg 58%
    14:00 +19°C° 0.4 mm 2 m/s 548 mmHg 60%
    15:00 +19°C° 0.5 mm 1 m/s 547 mmHg 69%
    16:00 +16°C° 0.5 mm 1 m/s 546 mmHg 78%
    17:00 +15°C° 0.5 mm 1 m/s 545 mmHg 86%
    18:00 +14°C° 0.3 mm 1 m/s 545 mmHg 87%
    19:00 +13°C° 0.3 mm 1 m/s 545 mmHg 87%
    20:00 +11°C° 0.3 mm 1 m/s 545 mmHg 88%
    21:00 +11°C° 0 mm 1 m/s 545 mmHg 88%
    22:00 +9°C° 0 mm 0 m/s 544 mmHg 88%
    23:00 +9°C° 0 mm 0 m/s 544 mmHg 88%

    24 Septembre, Mardi

    Heure Température Précipitation Vent Pression Humidité
    00:00 +9°C° 0 mm 0 m/s 544 mmHg 88%
    01:00 +8°C° 0 mm 0 m/s 544 mmHg 89%
    02:00 +8°C° 0 mm 0 m/s 543 mmHg 89%
    03:00 +8°C° 0 mm 0 m/s 543 mmHg 90%
    04:00 +8°C° 0 mm 0 m/s 543 mmHg 91%
    05:00 +8°C° 0 mm 0 m/s 544 mmHg 91%
    06:00 +10°C° 0 mm 0 m/s 545 mmHg 86%
    07:00 +13°C° 0 mm 0 m/s 547 mmHg 81%
    08:00 +15°C° 0 mm 0 m/s 548 mmHg 75%
    09:00 +18°C° 0.3 mm 1 m/s 548 mmHg 70%
    10:00 +19°C° 0.3 mm 1 m/s 549 mmHg 65%
    11:00 +21°C° 0.3 mm 1 m/s 549 mmHg 61%
    12:00 +20°C° 0.8 mm 1 m/s 548 mmHg 63%
    13:00 +20°C° 0.8 mm 1 m/s 547 mmHg 65%
    14:00 +19°C° 0.8 mm 2 m/s 547 mmHg 66%
    15:00 +19°C° 0.8 mm 1 m/s 546 mmHg 74%
    16:00 +16°C° 0.8 mm 1 m/s 545 mmHg 81%
    17:00 +15°C° 0.8 mm 1 m/s 545 mmHg 88%
    18:00 +14°C° 0.5 mm 1 m/s 544 mmHg 89%
    19:00 +12°C° 0.5 mm 0 m/s 544 mmHg 90%
    20:00 +10°C° 0.5 mm 0 m/s 544 mmHg 90%
    21:00 +10°C° 0.1 mm 0 m/s 544 mmHg 91%
    22:00 +10°C° 0.1 mm 0 m/s 544 mmHg 91%
    23:00 +11°C° 0.1 mm 1 m/s 544 mmHg 91%
    Voir plus